Zurück zum Katalog

STARLINK-35288

AktivKommunikationVLEO
NORAD 65749·PAYLOAD·🇺🇸 United States

Gestartet Sep 25, 2025 von Cape Canaveral Space Force Station

Loading…

Nächste Überflüge (nächste 24 Stunden)

TLE

AktuellSource: CelesTrak SupGP

Epoche: Sep 15, 2026, 03:29 UTC

1 65749C 25216R   26258.14562500  .00027766  00000+0  82022-3 0  2585
2 65749  53.1575 170.7026 0001339  93.9427 170.7164 15.34382222    11

Verfolge STARLINK-35288 in Echtzeit mit AllMySat

Download on the App Store